Regional Weather Roundup
Issued by NWS

Home | Current Version | Previous Version | Text Only | Print | Product List | Glossary Off
Versions: 1 2 3 4 5 6 7 8 9 10 11 12 13 14 15 16 17 18 19 20 21 22 23 24 25 26 27 28 29 30 31 32 33 34 35 36 37 38 39 40 41 42 43 44 45 46 47 48 49 50

271
ASUS44 KLIX 181211
RWRLA
LOUISIANA WEATHER ROUNDUP
NATIONAL WEATHER SERVICE NEW ORLEANS LA
700 AM CDT SAT APR 18 2015

NOTE: "FAIR" INDICATES FEW OR NO CLOUDS BELOW 12,000 FEET WITH NO
      SIGNIFICANT WEATHER AND/OR OBSTRUCTIONS TO VISIBILITY.
      SKY/WX - SKY CONDITION AND SIGNIFICANT WEATHER.
      TMP - AIR TEMPERATURE.    DP   - DEWPOINT TEMPERATURE.
      RH  - RELATIVE HUMIDITY.  PRES - PRESSURE.
      HX  - HEAT INDEX.         WCI  - WIND CHILL INDEX.

*  THESE STATIONS ARE NOT NWS OR FAA STATIONS AND ARE NOT UNDER
   NWS QUALITY CONTROL.

LAZ040-048-061>063-065-066-069-181300-
SOUTHEAST LOUISIANA

CITY           SKY/WX    TMP DP  RH WIND       PRES   REMARKS
N.O. AUDUBON     N/A     73  73 100 MISG        N/A
6HR MIN TEMP:  70; 6HR MAX TEMP:  73; 6HR PCP:  0.32;

N.O. INTL ARPT LGT RAIN  72  69  90 NE8       29.91F
6HR MIN TEMP:  71; 6HR MAX TEMP:  74; 6HR PCP:  0.33;

N.O. LAKEFRONT LGT RAIN  74  68  81 NE6       29.92R
6HR MIN TEMP:  74; 6HR MAX TEMP:  78; 6HR PCP:  0.34;

SLIDELL        LGT RAIN  70  70 100 CALM      29.94R
6HR MIN TEMP:  70; 6HR MAX TEMP:  72; 6HR PCP:  0.17;

BATON ROUGE    CLOUDY    69  67  93 E9        29.89F
6HR MIN TEMP:  69; 6HR MAX TEMP:  72; 6HR PCP:  0.45;

BOOTHVILLE     CLOUDY    69  68  96 N3        29.90F
6HR MIN TEMP:  69; 6HR MAX TEMP:  73; 6HR PCP:  1.48;

BELLE CHASSE   LGT RAIN  71  69  93 NE5       29.91R FOG
6HR MIN TEMP:  70; 6HR MAX TEMP:  73;

BOGALUSA*        N/A     70  66  88 CALM      29.96R
6HR MIN TEMP:  69; 6HR MAX TEMP:  70; 6HR PCP:  0.02;

GALLIANO*      CLOUDY    69  68  98 CALM      29.90F
6HR MIN TEMP:  67; 6HR MAX TEMP:  73; 6HR PCP:  1.73;

NEW ROADS*     PTSUNNY   69  67  96 SE3       29.89R
6HR MIN TEMP:  68; 6HR MAX TEMP:  72; 6HR PCP:  0.36;

GONZALES*      TSTM      69  69 100 CALM      29.92R
6HR MIN TEMP:  69; 6HR MAX TEMP:  72; 6HR PCP:  0.45;

HAMMOND*       CLOUDY    70  66  88 CALM      29.95R
HOUMA*         TSTM      70  70 100 N6        29.92R
PORT FOURCHON* CLOUDY    72  70  94 NE8       29.92F

$$

LAZ041-044-053-054-181300-
SOUTHWEST LOUISIANA

CITY           SKY/WX    TMP DP  RH WIND       PRES   REMARKS
LAKE CHARLES   LGT RAIN  68  66  93 NE7       29.85R
6HR MIN TEMP:  67; 6HR MAX TEMP:  69; 6HR PCP:  1.43;

LAFAYETTE      CLOUDY    69  67  93 S3        29.88R
6HR MIN TEMP:  68; 6HR MAX TEMP:  73; 6HR PCP:  0.35;

PATTERSON      CLOUDY    70  68  94 E8        29.92F
6HR MIN TEMP:  70; 6HR MAX TEMP:  72;

SALT POINT       N/A     69  69 100 E6        29.90R
6HR MIN TEMP:  69; 6HR MAX TEMP:  73; 6HR PCP:  1.77;

NEW IBERIA     HVY RAIN  71  69  93 S20       29.95R FOG
6HR MIN TEMP:  70; 6HR MAX TEMP:  74; 6HR PCP:  0.79;

CHENAULT AIRPK LGT RAIN  66  64  94 CALM      29.87R

$$

LAZ027-028-181300-
CENTRAL LOUISIANA

CITY           SKY/WX    TMP DP  RH WIND       PRES   REMARKS
FORT POLK      CLOUDY    67  66  96 VRB2      29.87R
6HR MIN TEMP:  67; 6HR MAX TEMP:  69; 6HR PCP:  0.06;

ALEXANDRIA INT CLOUDY    67  67 100 CALM      29.86R
6HR MIN TEMP:  67; 6HR MAX TEMP:  71;

ALEXANDRIA     CLOUDY    66  66 100 CALM      29.86R
6HR MIN TEMP:  65; 6HR MAX TEMP:  68; 6HR PCP:  0.17;


$$

LAZ001-002-181300-
NORTHWEST LOUISIANA

CITY           SKY/WX    TMP DP  RH WIND       PRES   REMARKS
SHREVEPORT     CLOUDY    67  65  93 CALM      29.86R
6HR MIN TEMP:  67; 6HR MAX TEMP:  71; 6HR PCP:  0.04;

BARKSDALE AFB  CLOUDY    66  65  98 NE2       29.85S
6HR MIN TEMP:  66; 6HR MAX TEMP:  69; 6HR PCP:  0.05;

DTN SHREVEPORT CLOUDY    67  63  87 CALM      29.86S
6HR MIN TEMP:  66; 6HR MAX TEMP:  70; 6HR PCP:  0.01;


$$

LAZ014-016-181300-
NORTHEAST LOUISIANA

CITY           SKY/WX    TMP DP  RH WIND       PRES   REMARKS
MONROE         CLOUDY    67  66  97 NE8       29.87S
6HR MIN TEMP:  66; 6HR MAX TEMP:  68;

TALLULAH       CLOUDY    67  64  90 SE10      29.90S
6HR MIN TEMP:  65; 6HR MAX TEMP:  68;


$$




USA.gov is the U.S. government's official web portal to all federal, state and local government web resources and services.